ANA618 RJFM-RJTT

Flight info

Callsign ANA618
Flight time 1h 19m
Altitude 27000
Route MADOG M750 BILLY Y21 AKSEL
Aircraft A321/M-SDE3FGHIRWY/LB1

Departure

Time 2026-05-07 11:59
Airport Miyazaki Airport (RJFM)

Arrival

Time 2026-05-07 13:18
Airport Tokyo Haneda International Airport (RJTT)
Time Latitude Longitude Altitude Speed Heading
2026-05-07 11:36 31.87358 131.44144 30 ft 0 kts 175°
2026-05-07 11:49 31.87369 131.44143 30 ft 4 kts 174°
2026-05-07 11:49 31.87396 131.44139 30 ft 4 kts 172°
2026-05-07 11:50 31.87423 131.44134 30 ft 4 kts 169°
2026-05-07 11:50 31.87449 131.44128 30 ft 4 kts 165°
2026-05-07 11:50 31.87475 131.44118 30 ft 4 kts 152°
2026-05-07 11:50 31.87493 131.44100 30 ft 4 kts 102°
2026-05-07 11:51 31.87494 131.44089 30 ft 1 kts 85°
2026-05-07 11:51 31.87494 131.44088 30 ft 0 kts 85°
2026-05-07 11:53 31.87495 131.44104 30 ft 5 kts 85°
2026-05-07 11:53 31.87501 131.44182 30 ft 14 kts 85°
2026-05-07 11:53 31.87511 131.44336 30 ft 23 kts 85°
2026-05-07 11:54 31.87526 131.44561 30 ft 30 kts 85°
2026-05-07 11:54 31.87543 131.44803 30 ft 29 kts 85°
2026-05-07 11:54 31.87559 131.45038 31 ft 29 kts 85°
2026-05-07 11:54 31.87575 131.45268 31 ft 28 kts 85°
2026-05-07 11:55 31.87590 131.45488 31 ft 27 kts 85°
2026-05-07 11:55 31.87604 131.45707 31 ft 27 kts 85°
2026-05-07 11:55 31.87619 131.45920 31 ft 26 kts 85°
2026-05-07 11:55 31.87631 131.46092 31 ft 14 kts 85°
2026-05-07 11:56 31.87673 131.46163 31 ft 10 kts 14°
2026-05-07 11:56 31.87707 131.46162 31 ft 0 kts 355°
2026-05-07 11:56 31.87708 131.46162 31 ft 1 kts 355°
2026-05-07 11:57 31.87731 131.46159 32 ft 6 kts 355°
2026-05-07 11:57 31.87780 131.46154 33 ft 6 kts 355°
2026-05-07 11:57 31.87801 131.46130 32 ft 4 kts 286°
2026-05-07 11:57 31.87800 131.46107 33 ft 0 kts 263°
2026-05-07 11:58 31.87797 131.46082 33 ft 11 kts 264°
2026-05-07 11:58 31.87773 131.45716 32 ft 81 kts 265°
2026-05-07 11:58 31.87710 131.44803 32 ft 140 kts 265°
2026-05-07 11:58 31.87625 131.43497 167 ft 170 kts 266°
2026-05-07 11:59 31.87544 131.42151 916 ft 164 kts 266°
2026-05-07 11:59 31.87447 131.40817 1574 ft 163 kts 265°
2026-05-07 11:59 31.87344 131.39455 2030 ft 175 kts 265°
2026-05-07 11:59 31.87233 131.37967 2238 ft 196 kts 265°
2026-05-07 12:00 31.87206 131.36283 2388 ft 217 kts 282°
2026-05-07 12:00 31.88042 131.34741 2531 ft 240 kts 323°
2026-05-07 12:00 31.89662 131.34009 2877 ft 262 kts 350°
2026-05-07 12:00 31.91507 131.33835 3577 ft 270 kts 359°
2026-05-07 12:01 31.93400 131.33835 4408 ft 274 kts
2026-05-07 12:01 31.95244 131.34388 5160 ft 280 kts 31°
2026-05-07 12:01 31.96572 131.36043 5891 ft 284 kts 65°
2026-05-07 12:01 31.97133 131.38272 6631 ft 286 kts 82°
2026-05-07 12:02 31.97116 131.40582 7329 ft 289 kts 106°
2026-05-07 12:02 31.96305 131.42744 8023 ft 291 kts 124°
2026-05-07 12:02 31.95045 131.44608 8718 ft 292 kts 137°
2026-05-07 12:02 31.93453 131.46100 9391 ft 294 kts 147°
2026-05-07 12:03 31.91774 131.47505 10065 ft 298 kts 147°
2026-05-07 12:03 31.90072 131.48936 10566 ft 308 kts 147°
2026-05-07 12:03 31.88254 131.50453 10705 ft 330 kts 147°
2026-05-07 12:03 31.86338 131.52039 10831 ft 350 kts 148°
2026-05-07 12:04 31.84287 131.53730 10955 ft 370 kts 147°
2026-05-07 12:04 31.82159 131.55483 11172 ft 385 kts 147°
2026-05-07 12:04 31.79946 131.57310 11674 ft 391 kts 147°
2026-05-07 12:04 31.77901 131.59443 12212 ft 400 kts 133°
2026-05-07 12:05 31.76414 131.62237 12714 ft 410 kts 115°
2026-05-07 12:05 31.75683 131.65490 13228 ft 417 kts 97°
2026-05-07 12:05 31.75826 131.68914 13722 ft 423 kts 78°
2026-05-07 12:05 31.76742 131.72207 14220 ft 427 kts 69°
2026-05-07 12:06 31.77807 131.75479 14725 ft 430 kts 69°
2026-05-07 12:06 31.78885 131.78768 15200 ft 433 kts 69°
2026-05-07 12:06 31.79963 131.82043 15660 ft 437 kts 69°
2026-05-07 12:06 31.81060 131.85388 16116 ft 440 kts 69°
2026-05-07 12:07 31.82157 131.88752 16562 ft 443 kts 69°
2026-05-07 12:07 31.83260 131.92149 17001 ft 446 kts 69°
2026-05-07 12:07 31.84366 131.95578 17435 ft 449 kts 69°
2026-05-07 12:07 31.85479 131.99030 17853 ft 453 kts 69°
2026-05-07 12:08 31.86615 132.02490 18270 ft 455 kts 66°
2026-05-07 12:08 31.88097 132.05787 18683 ft 457 kts 59°
2026-05-07 12:08 31.89664 132.09052 19084 ft 460 kts 59°
2026-05-07 12:08 31.91242 132.12334 19483 ft 462 kts 59°
2026-05-07 12:09 31.92828 132.15637 19859 ft 466 kts 60°
2026-05-07 12:09 31.94423 132.18972 20254 ft 469 kts 60°
2026-05-07 12:09 31.96008 132.22284 20622 ft 472 kts 60°
2026-05-07 12:09 31.97621 132.25662 20999 ft 474 kts 60°
2026-05-07 12:10 31.99236 132.29053 21378 ft 477 kts 60°
2026-05-07 12:10 32.00864 132.32474 21726 ft 480 kts 60°
2026-05-07 12:10 32.02501 132.35914 22069 ft 483 kts 60°
2026-05-07 12:10 32.04148 132.39373 22399 ft 486 kts 60°
2026-05-07 12:11 32.05806 132.42854 22730 ft 488 kts 60°
2026-05-07 12:11 32.07468 132.46353 23067 ft 491 kts 60°
2026-05-07 12:11 32.09140 132.49875 23384 ft 493 kts 60°
2026-05-07 12:11 32.10798 132.53369 23719 ft 496 kts 60°
2026-05-07 12:12 32.12485 132.56932 24017 ft 498 kts 60°
2026-05-07 12:12 32.14176 132.60505 24303 ft 501 kts 60°
2026-05-07 12:12 32.15878 132.64105 24616 ft 503 kts 60°
2026-05-07 12:12 32.17582 132.67719 24910 ft 505 kts 60°
2026-05-07 12:13 32.19290 132.71344 25210 ft 507 kts 60°
2026-05-07 12:13 32.21009 132.74990 25511 ft 509 kts 60°
2026-05-07 12:13 32.22732 132.78649 25831 ft 510 kts 60°
2026-05-07 12:13 32.24460 132.82316 26119 ft 513 kts 60°
2026-05-07 12:14 32.26198 132.86005 26396 ft 515 kts 60°
2026-05-07 12:14 32.27917 132.89665 26671 ft 517 kts 60°
2026-05-07 12:14 32.29661 132.93379 26908 ft 517 kts 60°
2026-05-07 12:14 32.31393 132.97079 26966 ft 510 kts 60°
2026-05-07 12:15 32.33096 133.00727 26964 ft 506 kts 60°
2026-05-07 12:15 32.34799 133.04375 26959 ft 505 kts 60°
2026-05-07 12:15 32.36495 133.08009 26965 ft 505 kts 60°
2026-05-07 12:15 32.38188 133.11638 26958 ft 505 kts 60°
2026-05-07 12:16 32.39886 133.15273 26960 ft 505 kts 60°
2026-05-07 12:16 32.41562 133.18863 26962 ft 504 kts 60°
2026-05-07 12:16 32.43256 133.22500 26959 ft 505 kts 60°
2026-05-07 12:16 32.44940 133.26135 26960 ft 505 kts 60°
2026-05-07 12:17 32.46628 133.29785 26963 ft 505 kts 60°
2026-05-07 12:17 32.48315 133.33428 26949 ft 505 kts 60°
2026-05-07 12:17 32.50004 133.37074 26956 ft 505 kts 60°
2026-05-07 12:17 32.51693 133.40722 26958 ft 504 kts 60°
2026-05-07 12:18 32.53379 133.44367 26960 ft 504 kts 60°
2026-05-07 12:18 32.55064 133.48010 26958 ft 504 kts 60°
2026-05-07 12:18 32.56746 133.51649 26952 ft 504 kts 60°
2026-05-07 12:18 32.58406 133.55241 26947 ft 503 kts 60°
2026-05-07 12:19 32.60084 133.58880 26948 ft 503 kts 60°
2026-05-07 12:19 32.61758 133.62525 26953 ft 503 kts 60°
2026-05-07 12:19 32.63434 133.66172 26953 ft 503 kts 60°
2026-05-07 12:19 32.65111 133.69816 26952 ft 503 kts 60°
2026-05-07 12:20 32.66790 133.73465 26947 ft 503 kts 60°
2026-05-07 12:20 32.68463 133.77116 26951 ft 503 kts 60°
2026-05-07 12:20 32.70131 133.80767 26954 ft 503 kts 60°
2026-05-07 12:20 32.71777 133.84371 26958 ft 503 kts 61°
2026-05-07 12:21 32.73440 133.88019 26961 ft 503 kts 61°
2026-05-07 12:21 32.75103 133.91678 26951 ft 503 kts 61°
2026-05-07 12:21 32.76769 133.95332 26950 ft 503 kts 60°
2026-05-07 12:21 32.78442 133.98989 26953 ft 503 kts 60°
2026-05-07 12:22 32.80108 134.02643 26952 ft 504 kts 61°
2026-05-07 12:22 32.81728 134.06336 26962 ft 504 kts 65°
2026-05-07 12:22 32.82961 134.10229 26965 ft 503 kts 73°
2026-05-07 12:22 32.83953 134.14218 26970 ft 503 kts 73°
2026-05-07 12:23 32.84933 134.18152 26968 ft 503 kts 73°
2026-05-07 12:23 32.85925 134.22132 26968 ft 502 kts 73°
2026-05-07 12:23 32.86916 134.26117 26966 ft 502 kts 73°
2026-05-07 12:23 32.87910 134.30102 26960 ft 502 kts 73°
2026-05-07 12:24 32.88899 134.34081 26953 ft 502 kts 73°
2026-05-07 12:24 32.89889 134.38071 26952 ft 502 kts 73°
2026-05-07 12:24 32.90877 134.42060 26957 ft 502 kts 73°
2026-05-07 12:24 32.91861 134.46046 26961 ft 502 kts 73°
2026-05-07 12:25 32.92844 134.50022 26962 ft 502 kts 73°
2026-05-07 12:25 32.93815 134.53957 26951 ft 502 kts 73°
2026-05-07 12:25 32.94796 134.57942 26949 ft 501 kts 74°
2026-05-07 12:25 32.95778 134.61927 26951 ft 502 kts 74°
2026-05-07 12:26 32.96758 134.65914 26960 ft 502 kts 74°
2026-05-07 12:26 32.97738 134.69900 26963 ft 501 kts 74°
2026-05-07 12:26 32.98710 134.73878 26950 ft 501 kts 74°
2026-05-07 12:26 32.99682 134.77865 26955 ft 501 kts 74°
2026-05-07 12:27 33.00654 134.81851 26952 ft 501 kts 74°
2026-05-07 12:27 33.01627 134.85836 26951 ft 501 kts 74°
2026-05-07 12:27 33.02600 134.89820 26951 ft 501 kts 74°
2026-05-07 12:27 33.03560 134.93741 26949 ft 500 kts 74°
2026-05-07 12:28 33.04530 134.97723 26951 ft 500 kts 74°
2026-05-07 12:28 33.05498 135.01709 26964 ft 500 kts 74°
2026-05-07 12:28 33.06459 135.05692 26954 ft 500 kts 74°
2026-05-07 12:28 33.07416 135.09677 26959 ft 500 kts 74°
2026-05-07 12:29 33.08371 135.13655 26953 ft 500 kts 74°
2026-05-07 12:29 33.09328 135.17645 26962 ft 499 kts 74°
2026-05-07 12:29 33.10278 135.21619 26965 ft 499 kts 74°
2026-05-07 12:29 33.11200 135.25610 26961 ft 499 kts 75°
2026-05-07 12:30 33.12081 135.29557 26963 ft 499 kts 75°
2026-05-07 12:30 33.12952 135.33554 26953 ft 499 kts 76°
2026-05-07 12:30 33.13817 135.37563 26958 ft 498 kts 76°
2026-05-07 12:30 33.14685 135.41568 26951 ft 498 kts 76°
2026-05-07 12:31 33.15557 135.45563 26962 ft 498 kts 75°
2026-05-07 12:31 33.16433 135.49565 26958 ft 498 kts 75°
2026-05-07 12:31 33.17312 135.53561 26963 ft 498 kts 75°
2026-05-07 12:31 33.18194 135.57561 26957 ft 498 kts 75°
2026-05-07 12:32 33.19070 135.61553 26961 ft 498 kts 75°
2026-05-07 12:32 33.19933 135.65497 26959 ft 498 kts 76°
2026-05-07 12:32 33.20805 135.69493 26953 ft 497 kts 76°
2026-05-07 12:32 33.21675 135.73490 26956 ft 497 kts 76°
2026-05-07 12:33 33.23410 135.81484 26950 ft 497 kts 76°
2026-05-07 12:33 33.24276 135.85481 26956 ft 497 kts 76°
2026-05-07 12:33 33.25146 135.89478 26955 ft 497 kts 76°
2026-05-07 12:34 33.26013 135.93471 26952 ft 497 kts 76°
2026-05-07 12:34 33.26875 135.97464 26952 ft 497 kts 76°
2026-05-07 12:34 33.27733 136.01462 26951 ft 497 kts 76°
2026-05-07 12:34 33.28590 136.05462 26953 ft 497 kts 76°
2026-05-07 12:35 33.29435 136.09407 26961 ft 497 kts 76°
2026-05-07 12:35 33.30291 136.13401 26965 ft 496 kts 76°
2026-05-07 12:35 33.31148 136.17398 26951 ft 496 kts 76°
2026-05-07 12:35 33.32002 136.21384 26957 ft 496 kts 76°
2026-05-07 12:36 33.32860 136.25388 26952 ft 496 kts 76°
2026-05-07 12:36 33.33711 136.29374 26960 ft 495 kts 76°
2026-05-07 12:36 33.34558 136.33367 26953 ft 495 kts 76°
2026-05-07 12:36 33.35404 136.37365 26949 ft 496 kts 76°
2026-05-07 12:37 33.36249 136.41362 26958 ft 495 kts 76°
2026-05-07 12:37 33.37092 136.45356 26953 ft 495 kts 76°
2026-05-07 12:37 33.37923 136.49294 26950 ft 495 kts 76°
2026-05-07 12:37 33.38766 136.53287 26949 ft 495 kts 76°
2026-05-07 12:38 33.39607 136.57279 26945 ft 495 kts 76°
2026-05-07 12:38 33.40444 136.61265 26944 ft 495 kts 76°
2026-05-07 12:38 33.41282 136.65260 26944 ft 495 kts 76°
2026-05-07 12:38 33.42119 136.69253 26945 ft 495 kts 76°
2026-05-07 12:39 33.42955 136.73249 26945 ft 494 kts 77°
2026-05-07 12:39 33.43787 136.77244 26943 ft 494 kts 77°
2026-05-07 12:39 33.44616 136.81229 26940 ft 494 kts 77°
2026-05-07 12:39 33.45433 136.85168 26946 ft 494 kts 77°
2026-05-07 12:40 33.46259 136.89163 26942 ft 494 kts 77°
2026-05-07 12:40 33.47085 136.93156 26944 ft 494 kts 77°
2026-05-07 12:40 33.47910 136.97144 26943 ft 494 kts 77°
2026-05-07 12:40 33.48736 137.01135 26941 ft 493 kts 77°
2026-05-07 12:41 33.49558 137.05119 26942 ft 493 kts 77°
2026-05-07 12:41 33.50379 137.09113 26944 ft 493 kts 77°
2026-05-07 12:41 33.51196 137.13104 26941 ft 493 kts 77°
2026-05-07 12:41 33.52011 137.17088 26945 ft 493 kts 77°
2026-05-07 12:42 33.52827 137.21076 26947 ft 493 kts 77°
2026-05-07 12:42 33.53634 137.25015 26943 ft 492 kts 77°
2026-05-07 12:42 33.54444 137.28993 26947 ft 492 kts 77°
2026-05-07 12:42 33.55254 137.32979 26948 ft 492 kts 77°
2026-05-07 12:43 33.56065 137.36969 26945 ft 492 kts 77°
2026-05-07 12:43 33.56874 137.40955 26946 ft 492 kts 77°
2026-05-07 12:43 33.57679 137.44942 26942 ft 492 kts 77°
2026-05-07 12:43 33.58486 137.48925 26941 ft 492 kts 77°
2026-05-07 12:44 33.59290 137.52911 26941 ft 492 kts 77°
2026-05-07 12:44 33.60092 137.56903 26942 ft 492 kts 77°
2026-05-07 12:44 33.60997 137.60863 26949 ft 492 kts 71°
2026-05-07 12:44 33.62337 137.64642 26950 ft 493 kts 63°
2026-05-07 12:45 33.63962 137.68193 26944 ft 493 kts 61°
2026-05-07 12:45 33.65620 137.71784 26949 ft 493 kts 61°
2026-05-07 12:45 33.67276 137.75382 26945 ft 492 kts 61°
2026-05-07 12:45 33.68928 137.78982 26942 ft 492 kts 62°
2026-05-07 12:46 33.70575 137.82584 26945 ft 492 kts 62°
2026-05-07 12:46 33.72216 137.86188 26941 ft 492 kts 62°
2026-05-07 12:46 33.73857 137.89799 26945 ft 492 kts 62°
2026-05-07 12:46 33.75497 137.93407 26949 ft 492 kts 62°
2026-05-07 12:47 33.77140 137.97014 26954 ft 492 kts 62°
2026-05-07 12:47 33.78785 138.00622 26951 ft 492 kts 62°
2026-05-07 12:47 33.80428 138.04233 26952 ft 492 kts 62°
2026-05-07 12:47 33.82047 138.07797 26953 ft 492 kts 62°
2026-05-07 12:48 33.83682 138.11400 26943 ft 492 kts 62°
2026-05-07 12:48 33.85321 138.15018 26944 ft 492 kts 62°
2026-05-07 12:48 33.86959 138.18637 26955 ft 492 kts 62°
2026-05-07 12:48 33.88590 138.22250 26956 ft 492 kts 62°
2026-05-07 12:49 33.90222 138.25874 26954 ft 492 kts 62°
2026-05-07 12:49 33.91847 138.29491 26950 ft 492 kts 62°
2026-05-07 12:49 33.93471 138.33116 26949 ft 492 kts 62°
2026-05-07 12:49 33.95092 138.36747 26952 ft 492 kts 62°
2026-05-07 12:50 33.96688 138.40331 26950 ft 492 kts 62°
2026-05-07 12:50 33.98306 138.43971 26944 ft 492 kts 62°
2026-05-07 12:50 33.99923 138.47612 26947 ft 493 kts 62°
2026-05-07 12:50 34.01536 138.51248 26941 ft 493 kts 62°
2026-05-07 12:51 34.03152 138.54891 26942 ft 493 kts 62°
2026-05-07 12:51 34.04768 138.58538 26939 ft 493 kts 62°
2026-05-07 12:51 34.06384 138.62193 26936 ft 494 kts 63°
2026-05-07 12:51 34.07996 138.65840 26935 ft 494 kts 63°
2026-05-07 12:52 34.09612 138.69504 26936 ft 494 kts 63°
2026-05-07 12:52 34.11227 138.73176 26748 ft 496 kts 63°
2026-05-07 12:52 34.12848 138.76863 26498 ft 498 kts 63°
2026-05-07 12:52 34.14475 138.80562 26248 ft 499 kts 63°
2026-05-07 12:53 34.16098 138.84256 25999 ft 499 kts 63°
2026-05-07 12:53 34.17723 138.87964 25748 ft 500 kts 63°
2026-05-07 12:53 34.19327 138.91630 25504 ft 501 kts 63°
2026-05-07 12:53 34.20955 138.95354 25205 ft 500 kts 63°
2026-05-07 12:54 34.22577 138.99062 24161 ft 502 kts 63°
2026-05-07 12:54 34.24221 139.02808 23110 ft 505 kts 63°
2026-05-07 12:54 34.25861 139.06548 22247 ft 502 kts 62°
2026-05-07 12:54 34.27491 139.10269 21452 ft 498 kts 62°
2026-05-07 12:55 34.28989 139.14027 21097 ft 495 kts 68°
2026-05-07 12:55 34.30301 139.17865 20911 ft 494 kts 68°
2026-05-07 12:55 34.31621 139.21708 20966 ft 495 kts 68°
2026-05-07 12:55 34.32948 139.25555 20950 ft 495 kts 68°
2026-05-07 12:56 34.34275 139.29394 20950 ft 495 kts 68°
2026-05-07 12:56 34.35588 139.33189 20953 ft 495 kts 68°
2026-05-07 12:56 34.36916 139.37033 20952 ft 495 kts 68°
2026-05-07 12:56 34.38244 139.40887 20951 ft 496 kts 68°
2026-05-07 12:57 34.39566 139.44735 20925 ft 496 kts 68°
2026-05-07 12:57 34.40882 139.48578 20147 ft 489 kts 68°
2026-05-07 12:57 34.42173 139.52364 18843 ft 485 kts 68°
2026-05-07 12:57 34.43453 139.56116 17658 ft 477 kts 67°
2026-05-07 12:58 34.45087 139.59557 17018 ft 468 kts 51°
2026-05-07 12:58 34.47388 139.62266 16357 ft 458 kts 35°
2026-05-07 12:58 34.49950 139.64436 15617 ft 453 kts 32°
2026-05-07 12:58 34.52543 139.66579 14873 ft 450 kts 32°
2026-05-07 12:59 34.55124 139.68706 14145 ft 446 kts 32°
2026-05-07 12:59 34.57680 139.70816 13424 ft 442 kts 32°
2026-05-07 12:59 34.60217 139.72909 12699 ft 439 kts 32°
2026-05-07 12:59 34.62731 139.74984 12188 ft 437 kts 32°
2026-05-07 13:00 34.65250 139.77065 11996 ft 438 kts 32°
2026-05-07 13:00 34.67773 139.79147 12017 ft 439 kts 32°
2026-05-07 13:00 34.70298 139.81231 12006 ft 439 kts 32°
2026-05-07 13:00 34.72793 139.83290 12009 ft 439 kts 32°
2026-05-07 13:01 34.75307 139.85362 11683 ft 434 kts 32°
2026-05-07 13:01 34.77796 139.87412 10993 ft 430 kts 32°
2026-05-07 13:01 34.80256 139.89432 10434 ft 423 kts 32°
2026-05-07 13:01 34.82641 139.91389 10291 ft 402 kts 32°
2026-05-07 13:02 34.84881 139.93229 10175 ft 375 kts 32°
2026-05-07 13:02 34.86973 139.94950 10044 ft 352 kts 32°
2026-05-07 13:02 34.88938 139.96569 9916 ft 331 kts 32°
2026-05-07 13:02 34.90813 139.98117 9613 ft 322 kts 32°
2026-05-07 13:03 34.92652 139.99633 9314 ft 317 kts 32°
2026-05-07 13:03 34.94450 140.01115 8964 ft 315 kts 32°
2026-05-07 13:03 34.96283 140.02625 8538 ft 314 kts 32°
2026-05-07 13:03 34.98067 140.04093 8163 ft 313 kts 32°
2026-05-07 13:04 34.99866 140.05575 7992 ft 311 kts 32°
2026-05-07 13:04 35.01659 140.07053 8007 ft 312 kts 32°
2026-05-07 13:04 35.03517 140.08407 8006 ft 310 kts 19°
2026-05-07 13:04 35.05582 140.09066 8007 ft 307 kts
2026-05-07 13:05 35.07679 140.09568 8008 ft 307 kts
2026-05-07 13:05 35.09777 140.10066 8006 ft 308 kts
2026-05-07 13:05 35.11883 140.10565 8008 ft 308 kts
2026-05-07 13:05 35.13984 140.11064 8007 ft 307 kts
2026-05-07 13:06 35.16083 140.11560 8008 ft 307 kts
2026-05-07 13:06 35.18184 140.12056 8006 ft 307 kts
2026-05-07 13:06 35.20284 140.12550 8007 ft 308 kts
2026-05-07 13:06 35.22387 140.13050 8004 ft 308 kts
2026-05-07 13:07 35.24462 140.13547 8009 ft 308 kts
2026-05-07 13:07 35.26559 140.14049 8006 ft 307 kts
2026-05-07 13:07 35.28656 140.14552 8005 ft 307 kts
2026-05-07 13:07 35.30755 140.15053 8006 ft 307 kts
2026-05-07 13:08 35.32853 140.15551 8007 ft 307 kts
2026-05-07 13:08 35.34946 140.16050 8007 ft 307 kts
2026-05-07 13:08 35.37052 140.16554 7931 ft 307 kts
2026-05-07 13:08 35.39143 140.17055 7806 ft 306 kts
2026-05-07 13:09 35.41237 140.17556 7676 ft 306 kts
2026-05-07 13:09 35.42621 140.17886 7593 ft 306 kts
2026-05-07 13:09 35.45412 140.18549 7417 ft 305 kts
2026-05-07 13:09 35.47495 140.19043 7297 ft 304 kts
2026-05-07 13:10 35.49571 140.19537 7170 ft 304 kts
2026-05-07 13:10 35.50943 140.19866 7087 ft 303 kts
2026-05-07 13:10 35.53019 140.20114 6959 ft 297 kts 354°
2026-05-07 13:10 35.55032 140.19720 6842 ft 292 kts 339°
2026-05-07 13:11 35.56868 140.18732 6710 ft 285 kts 323°
2026-05-07 13:11 35.58410 140.17258 6592 ft 279 kts 309°
2026-05-07 13:11 35.59593 140.15411 6465 ft 273 kts 296°
2026-05-07 13:11 35.60525 140.12625 6296 ft 259 kts 278°
2026-05-07 13:12 35.60709 140.11178 6209 ft 248 kts 270°
2026-05-07 13:12 35.60719 140.09143 6118 ft 233 kts 265°
2026-05-07 13:12 35.60711 140.07226 5979 ft 215 kts 265°
2026-05-07 13:12 35.60692 140.05404 5547 ft 216 kts 265°
2026-05-07 13:13 35.60667 140.03520 4963 ft 223 kts 264°
2026-05-07 13:13 35.60644 140.01626 4365 ft 220 kts 264°
2026-05-07 13:13 35.60622 139.99765 3791 ft 216 kts 264°
2026-05-07 13:13 35.60600 139.97966 3387 ft 203 kts 264°
2026-05-07 13:14 35.60581 139.96316 3079 ft 183 kts 263°
2026-05-07 13:14 35.60563 139.94817 2802 ft 169 kts 263°
2026-05-07 13:14 35.60544 139.93422 2564 ft 158 kts 263°
2026-05-07 13:14 35.60526 139.92103 2343 ft 152 kts 263°
2026-05-07 13:15 35.60508 139.90827 2148 ft 150 kts 262°
2026-05-07 13:15 35.60490 139.89549 1931 ft 146 kts 263°
2026-05-07 13:15 35.60475 139.88331 1720 ft 141 kts 263°
2026-05-07 13:15 35.60457 139.87132 1515 ft 140 kts 263°
2026-05-07 13:16 35.60440 139.85936 1313 ft 140 kts 263°
2026-05-07 13:16 35.60422 139.84737 1131 ft 140 kts 263°
2026-05-07 13:16 35.60400 139.83539 1078 ft 140 kts 262°
2026-05-07 13:16 35.60296 139.82363 1008 ft 137 kts 253°
2026-05-07 13:17 35.60008 139.81252 946 ft 136 kts 241°
2026-05-07 13:17 35.59533 139.80277 765 ft 134 kts 228°
2026-05-07 13:17 35.58862 139.79511 544 ft 131 kts 214°
2026-05-07 13:17 35.58111 139.78884 409 ft 131 kts 212°
2026-05-07 13:18 35.57366 139.78236 234 ft 131 kts 213°
2026-05-07 13:18 35.56615 139.77605 48 ft 131 kts 214°
2026-05-07 13:18 35.55982 139.77060 30 ft 83 kts 216°
2026-05-07 13:18 35.55655 139.76773 27 ft 33 kts 215°
2026-05-07 13:19 35.55492 139.76661 25 ft 25 kts 199°
2026-05-07 13:19 35.55374 139.76627 25 ft 14 kts 189°
2026-05-07 13:19 35.55303 139.76629 25 ft 10 kts 154°
2026-05-07 13:19 35.55280 139.76695 25 ft 8 kts 81°
2026-05-07 13:20 35.55326 139.76762 26 ft 13 kts 35°
2026-05-07 13:20 35.55418 139.76840 24 ft 18 kts 35°
2026-05-07 13:20 35.55534 139.76941 24 ft 23 kts 35°
2026-05-07 13:20 35.55665 139.77053 25 ft 23 kts 35°
2026-05-07 13:21 35.55790 139.77160 23 ft 22 kts 35°
2026-05-07 13:21 35.55908 139.77262 28 ft 16 kts 37°
2026-05-07 13:21 35.55963 139.77367 26 ft 16 kts 60°
2026-05-07 13:21 35.56040 139.77529 24 ft 27 kts 59°
2026-05-07 13:22 35.56146 139.77753 25 ft 31 kts 59°
2026-05-07 13:22 35.56255 139.77983 27 ft 31 kts 60°
2026-05-07 13:22 35.56363 139.78212 30 ft 31 kts 60°
2026-05-07 13:22 35.56426 139.78351 27 ft 11 kts 73°
2026-05-07 13:23 35.56384 139.78418 25 ft 11 kts 149°
2026-05-07 13:23 35.56294 139.78482 29 ft 21 kts 150°
2026-05-07 13:23 35.56134 139.78595 25 ft 32 kts 150°
2026-05-07 13:23 35.55921 139.78747 23 ft 36 kts 150°
2026-05-07 13:24 35.55705 139.78900 26 ft 36 kts 150°
2026-05-07 13:24 35.55540 139.79017 27 ft 21 kts 150°
2026-05-07 13:24 35.55448 139.79036 27 ft 13 kts 220°
2026-05-07 13:24 35.55407 139.78954 27 ft 10 kts 233°
2026-05-07 13:25 35.55357 139.78907 27 ft 9 kts 226°
2026-05-07 13:25 35.55337 139.78870 27 ft 4 kts 240°
2026-05-07 13:25 35.55331 139.78856 27 ft 1 kts 240°
2026-05-07 13:25 35.55326 139.78845 27 ft 2 kts 240°
2026-05-07 13:26 35.55324 139.78841 28 ft 0 kts 240°
2026-05-07 13:26 35.55323 139.78840 28 ft 0 kts 240°